Location: Hradec Kralove
(50.2170°N, 15.8330°E)
Time: 12:52:25
(UTC+02:00)

ISS - Visible Passes

Search period start: 24 September 2023 00:00
Search period end: 04 October 2023 00:00
Orbit: 414 x 422 km, 51.6° (Epoch: 24 September)

Date Brightness Start Highest point End Pass type
(mag) Time Alt. Az. Time Alt. Az. Time Alt. Az.
24 Sep -3.6 20:04:13 10° W 20:07:33 68° N 20:09:27 23° E visible
24 Sep -1.3 21:41:02 10° WNW 21:42:22 22° W 21:42:22 22° W visible
25 Sep -3.7 20:53:00 10° WNW 20:56:07 71° WSW 20:56:07 71° WSW visible
26 Sep -3.8 20:04:55 10° WNW 20:08:16 87° NNE 20:09:52 29° ESE visible
26 Sep -1.0 21:41:52 10° W 21:42:47 16° W 21:42:47 16° W visible
27 Sep -3.7 19:16:48 10° WNW 19:20:09 74° N 19:23:30 10° E visible
27 Sep -2.8 20:53:39 10° W 20:56:31 40° SW 20:56:31 40° SW visible
28 Sep -3.4 20:05:27 10° WNW 20:08:45 58° SSW 20:10:16 28° SE visible
28 Sep -0.5 21:43:10 10° WSW 21:43:11 10° WSW 21:43:11 10° WSW visible
29 Sep -3.7 19:17:17 10° WNW 19:20:37 77° SSW 19:23:58 10° ESE visible
29 Sep -1.7 20:54:27 10° W 20:56:57 21° SW 20:56:57 21° SW visible
30 Sep -2.2 20:06:00 10° W 20:08:59 30° SSW 20:10:46 18° SSE visible
01 Oct -2.8 19:17:39 10° W 19:20:51 42° SSW 19:24:02 10° SE visible
02 Oct -1.1 20:06:58 10° WSW 20:08:53 15° SW 20:10:48 10° S visible
03 Oct -1.5 19:18:09 10° W 19:20:47 21° SW 19:23:24 10° SSE visible
